Location: Eyeline Observatory
(43.2182°N, 78.8632°W)
Time: 21:23:26
(UTC-05:00)

Vanguard 1 Rocket - All Passes

Search period start: 10 December 2017 00:00
Search period end: 20 December 2017 00:00
Orbit: 655 x 4222 km, 34.3° (Epoch: 08 December)

Date Brightness Start Highest point End Pass type
(mag) Time Alt. Az. Time Alt. Az. Time Alt. Az.
10 Dec - 00:39:56 10° W 01:00:11 36° SW 01:20:52 10° SSE visible
10 Dec - 03:26:42 10° WSW 03:27:32 10° WSW 03:28:21 10° WSW visible
10 Dec - 16:11:58 10° S 16:19:56 27° SE 16:32:46 10° E daylight
10 Dec - 18:33:36 10° WSW 18:45:40 58° SSE 19:07:38 10° E visible
10 Dec - 20:58:37 10° W 21:15:20 64° S 21:40:51 10° ESE visible
10 Dec - 23:26:14 10° W 23:46:19 47° SSW 00:09:39 10° SE visible
11 Dec - 01:59:53 10° W 02:15:11 20° SW 02:30:04 10° SSW visible
11 Dec - 15:05:09 10° SSE 15:09:35 14° SE 15:15:14 10° E daylight
11 Dec - 17:23:35 10° SW 17:33:30 46° SSE 17:51:44 10° E visible
11 Dec - 19:47:22 10° WSW 20:01:28 65° S 20:25:47 10° ESE visible
11 Dec - 22:13:37 10° W 22:32:07 55° SSW 22:56:59 10° SE visible
12 Dec - 00:43:33 10° W 01:02:09 31° SW 01:21:44 10° S visible
12 Dec - 16:14:20 10° SSW 16:22:16 32° SE 16:35:48 10° E daylight
12 Dec - 18:36:39 10° WSW 18:48:22 60° SSE 19:10:09 10° E visible
12 Dec - 21:01:46 10° W 21:17:58 61° SSW 21:43:05 10° ESE visible
12 Dec - 23:29:33 10° W 23:48:31 41° SSW 00:11:04 10° SSE visible
13 Dec - 02:05:51 10° W 02:17:02 15° SW 02:28:13 10° SSW visible
13 Dec - 15:06:24 10° S 15:11:49 18° SE 15:19:28 10° E daylight
13 Dec - 17:26:30 10° SW 17:36:09 50° SSE 17:54:21 10° E visible
13 Dec - 19:50:32 10° W 20:04:14 63° S 20:28:10 10° ESE visible
13 Dec - 22:16:50 10° W 22:34:33 50° SSW 22:58:46 10° SE visible
14 Dec - 00:47:37 10° W 01:04:09 25° SW 01:21:56 10° S visible
14 Dec - 16:16:58 10° SSW 16:24:47 37° SE 16:38:41 10° E daylight
14 Dec - 18:39:48 10° WSW 18:51:10 61° S 19:12:37 10° E visible
14 Dec - 21:04:58 10° W 21:20:36 57° SSW 21:45:08 10° SE visible
14 Dec - 23:33:04 10° W 23:50:44 34° SW 00:12:03 10° SSE visible
15 Dec - 15:08:23 10° S 15:14:12 22° SE 15:23:03 10° E daylight
15 Dec - 17:29:32 10° SW 17:38:54 54° SSE 17:56:56 10° E visible
15 Dec - 19:53:44 10° W 20:07:01 61° S 20:30:25 10° ESE visible
15 Dec - 22:20:09 10° W 22:37:00 44° SSW 23:00:13 10° SSE visible
16 Dec - 00:52:31 10° W 01:06:13 19° SW 01:21:05 10° SSW visible
16 Dec - 16:19:48 10° SW 16:27:27 41° SSE 16:41:29 10° E daylight
16 Dec - 18:42:59 10° WSW 18:54:03 61° S 19:15:02 10° ESE visible
16 Dec - 21:08:14 10° W 21:23:15 51° SSW 21:46:56 10° SE visible
16 Dec - 23:36:55 10° W 23:52:58 28° SW 00:12:28 10° S visible
17 Dec - 15:10:47 10° SSW 15:16:44 27° SE 15:26:18 10° E daylight
17 Dec - 17:32:40 10° WSW 17:41:46 56° SSE 17:59:29 10° E visible
17 Dec - 19:57:00 10° W 20:09:50 57° S 20:32:31 10° ESE visible
17 Dec - 22:23:39 10° W 22:39:27 37° SSW 23:01:18 10° SSE visible
18 Dec - 00:59:15 10° WSW 01:08:23 13° SW 01:18:08 10° SSW visible
18 Dec - 14:03:25 10° SSE 14:06:34 13° SE 14:10:29 10° ESE daylight
18 Dec - 16:22:47 10° SW 16:30:15 45° SSE 16:44:12 10° E daylight
18 Dec - 18:46:14 10° WSW 18:56:57 59° S 19:17:22 10° ESE visible
18 Dec - 21:11:35 10° W 21:25:55 45° SSW 21:48:28 10° SE visible
18 Dec - 23:41:21 10° W 23:55:17 22° SW 00:12:05 10° S visible
19 Dec - 15:13:27 10° SSW 15:19:24 31° SSE 15:29:21 10° E daylight
19 Dec - 17:35:53 10° WSW 17:44:43 57° S 18:02:00 10° ESE visible
19 Dec - 20:00:18 10° W 20:12:39 52° SSW 20:34:25 10° SE visible
19 Dec - 22:27:24 10° W 22:41:57 31° SW 23:01:52 10° SSE visible
